GW0668 Weather Reports


time (UTC)temp
C
wind
direction
speed
KPH
gust
KPH
rain 1hr
cm
rain 24hr
cm
rain mn
cm
humidity
%
barometer
mb
20260906230023 25 62 12.9 17.7 0.00 0.00 0.00 58 1012.0
20260906223026 25 58 12.9 20.9 0.00 0.00 0.00 58 1012.6
20260906220016 25 64 11.3 19.3 0.00 0.00 0.00 59 1012.3
20260906213021 25 17 17.7 24.1 0.00 0.00 0.00 60 1012.5
20260906210026 25 19 9.7 22.5 0.00 0.00 0.00 59 1012.9
20260906203012 24 9 12.9 19.3 0.00 0.00 0.00 61 1013.3
20260906200019 23 101 3.2 9.7 0.00 0.00 0.00 63 1013.8
20260906193032 22 8 4.8 12.9 0.00 0.00 0.00 68 1014.3
20260906190016 21 67 11.3 20.9 0.00 0.00 0.00 70 1015.0
20260906183021 20 8 11.3 20.9 0.00 0.00 0.00 74 1015.3
20260906180036 20 49 9.7 17.7 0.00 0.00 0.00 75 1015.8
20260906173041 19 57 9.7 14.5 0.00 0.00 0.00 77 1016.4
20260906170027 18 49 4.8 9.7 0.00 0.00 0.00 76 1016.7
20260906163036 17 31 4.8 6.4 0.00 0.00 0.00 74 1016.9
20260906160019 17 271 1.6 3.2 0.00 0.00 0.00 74 1017.2
20260906153023 16 288 1.6 9.7 0.00 0.00 0.00 73 1017.0
20260906150033 17 298 1.6 8.0 0.00 0.00 0.00 75 1016.8
20260906143022 17 307 3.2 8.0 0.00 0.00 0.00 76 1016.6
20260906140027 15 311 3.2 4.8 0.00 0.00 0.00 80 1016.5
20260906133025 13 289 0.0 0.0 0.00 0.00 0.00 87 1016.4
20260906130043 12 212 0.0 0.0 0.00 0.00 0.00 84 1016.4
20260906123019 12 214 0.0 0.0 0.00 0.00 0.00 83 1016.3
20260906120018 12 215 0.0 0.0 0.00 0.00 0.00 82 1016.5
20260906113034 12 216 0.0 0.0 0.00 0.00 0.00 78 1016.4
20260906110019 11 224 0.0 0.0 0.00 0.00 0.00 79 1016.7
20260906103019 11 198 0.0 0.0 0.00 0.00 0.00 80 1016.7
20260906100014 11 199 0.0 0.0 0.00 0.00 0.00 79 1017.0
20260906093012 11 200 0.0 0.0 0.00 0.00 0.00 79 1016.9
20260906090025 11 201 0.0 1.6 0.00 0.00 0.00 75 1016.9
20260906083016 12 203 0.0 0.0 0.00 0.00 0.00 73 1017.1
20260906080026 12 343 0.0 1.6 0.00 0.00 0.00 71 1017.3
20260906073018 12 343 0.0 1.6 0.00 0.00 0.00 69 1017.4
20260906070011 13 343 0.0 1.6 0.00 0.00 0.00 67 1017.5
20260906063022 13 346 0.0 3.2 0.00 0.00 0.00 64 1017.4
20260906060057 15 283 1.6 1.6 0.00 0.00 0.00 60 1017.3
20260906053022 16 290 0.0 1.6 0.00 0.00 0.00 56 1017.3
20260906050012 18 292 0.0 3.2 0.00 0.00 0.00 51 1017.2
20260906043035 20 296 0.0 0.0 0.00 0.00 0.00 47 1017.0
20260906040035 20 298 0.0 0.0 0.00 0.00 0.00 46 1017.1
20260906033020 20 44 1.6 3.2 0.00 0.00 0.00 44 1017.0
20260906030032 21 51 3.2 8.0 0.00 0.00 0.00 41 1016.8
20260906023019 22 46 6.4 12.9 0.00 0.00 0.00 40 1016.6
20260906020026 23 56 4.8 11.3 0.00 0.00 0.00 39 1016.4
20260906013011 25 70 12.9 19.3 0.00 0.00 0.00 36 1016.2
20260906010018 25 57 11.3 22.5 0.00 0.00 0.00 33 1016.0
20260906003030 26 56 16.1 20.9 0.00 0.00 0.00 31 1015.9
20260906000042 26 49 9.7 19.3 0.00 0.00 0.00 31 1016.1
20260905233047 26 27 11.3 20.9 0.00 0.00 0.00 30 1016.0